{"data":{"norad_id":55239,"epoch":"2026-05-24T19:49:29.651232Z","epoch_age_seconds":93152,"freshness":"FRESH","line1":"1 55239U 23005A   26144.82603763 -.00000321  00000+0  00000+0 0  9991","line2":"2 55239   0.0131 246.4257 0000502 307.9398 119.4031  1.00272251 18454","mean_motion":1.00272251,"eccentricity":5.02e-5,"inclination_deg":0.0131,"raan_deg":246.4257,"arg_perigee_deg":307.9398,"mean_anomaly_deg":119.4031,"bstar":0,"rev_number":1845,"period_min":1436.090229988,"perigee_km":35784.347661994,"apogee_km":35788.580987967,"semimajor_km":42164.60132498,"source":"CELESTRAK","updated_at":"2026-05-25T13:38:14.137703Z"}}